Overview Statistics Trail Chart Weather Telemetry Raw packets
 

This is the latest recevied weather packets stored in our database for station/object EA5GTE-12. If no packets are shown the sender has not sent any weather packets the latest 10 day(s).

<< 5 6 7 8 9 10 11 >>
Time Temp. Humidity Pressure Rain* Wind** Luminosity Snow
1788461627 30° C 42% 943.7 hPa - - - -
1788460727 30.56° C 38% 943.7 hPa - - - -
1788459827 32.78° C 22% 943.5 hPa - - - -
1788458926 35° C 14% 943.3 hPa - - - -
1788458026 36.67° C 13% 943.2 hPa - - - -
1788457126 38.89° C 13% 943.1 hPa - - - -
1788456227 39.44° C 13% 943 hPa - - - -
1788455326 41.67° C 12% 943 hPa - - - -
1788454426 41.11° C 13% 943.1 hPa - - - -
1788453526 42.22° C 12% 943.1 hPa - - - -
1788451726 42.78° C 12% 943.1 hPa - - - -
1788450826 40.56° C 14% 943 hPa - - - -
1788449926 41.67° C 13% 943 hPa - - - -
1788449026 40° C 15% 943.4 hPa - - - -
1788448126 43.89° C 12% 943.3 hPa - - - -
1788447226 42.22° C 13% 943.5 hPa - - - -
1788446326 40° C 15% 943.7 hPa - - - -
1788445426 40.56° C 14% 943.7 hPa - - - -
1788444526 40.56° C 14% 943.9 hPa - - - -
1788443626 42.22° C 13% 944 hPa - - - -
1788442726 40° C 15% 944.1 hPa - - - -
1788441826 40° C 15% 944.2 hPa - - - -
1788440926 41.67° C 15% 944.4 hPa - - - -
1788440025 42.22° C 15% 944.4 hPa - - - -
1788439125 43.33° C 14% 944.4 hPa - - - -

* Rain since midnight (hover to see other rain measurements)
** Current wind speed in m/s (hover to see current wind gust speed)